Voltar ao catálogo

COSMOS 2251 DEB

AtivoLEO
NORAD 37312·DEBRIS·🇷🇺 Russia

Lançado Jun 16, 1993 de Plesetsk Cosmodrome

Loading…

Próximas Passagens (próximas 24 horas)

TLE

AtualizadoSource: Space-Track

Época: Sep 13, 2026, 02:28 UTC

1 37312U 93036BKC 26256.10327520  .00000888  00000-0  25165-3 0  9994
2 37312  74.0307  51.6607 0017212  89.5312 270.7819 14.46901698901311

Acompanhe COSMOS 2251 DEB em tempo real com AllMySat

Download on the App Store